• In Belarus
  • List of Countries
  • For 7 days
  • Water Temperature
  • Satellite Maps
  • Weather Map
  • Weather Widgets
  • user-avatar
    Login

    Hourly Weather Solden

    Today, 18 October, Thursday

    Time Temperature Precipitation Wind Pressure Humidity
    00:00 +3°C° 0 mm 1 mps 583 mmHg 84%
    01:00 +3°C° 0 mm 1 mps 583 mmHg 85%
    02:00 +3°C° 0 mm 1 mps 583 mmHg 85%
    03:00 +2°C° 0 mm 1 mps 582 mmHg 85%
    04:00 +2°C° 0 mm 1 mps 582 mmHg 84%
    05:00 +2°C° 0 mm 1 mps 582 mmHg 84%
    06:00 +2°C° 0 mm 1 mps 582 mmHg 83%
    07:00 +2°C° 0 mm 1 mps 582 mmHg 83%
    08:00 +5°C° 0 mm 1 mps 584 mmHg 73%
    09:00 +7°C° 0 mm 1 mps 585 mmHg 64%
    10:00 +9°C° 0 mm 1 mps 586 mmHg 55%
    11:00 +10°C° 0 mm 1 mps 586 mmHg 53%
    12:00 +11°C° 0 mm 1 mps 586 mmHg 50%
    13:00 +12°C° 0 mm 1 mps 587 mmHg 48%
    14:00 +11°C° 0 mm 1 mps 586 mmHg 51%
    15:00 +11°C° 0 mm 1 mps 586 mmHg 54%
    16:00 +10°C° 0 mm 1 mps 585 mmHg 57%
    17:00 +8°C° 0 mm 1 mps 585 mmHg 67%
    18:00 +6°C° 0 mm 1 mps 584 mmHg 76%
    19:00 +3°C° 0 mm 0 mps 583 mmHg 85%
    20:00 +2°C° 0 mm 0 mps 583 mmHg 86%
    21:00 +3°C° 0 mm 1 mps 583 mmHg 87%
    22:00 +3°C° 0 mm 1 mps 583 mmHg 87%
    23:00 +3°C° 0 mm 1 mps 583 mmHg 87%

    Tomorrow, 19 October, Friday

    Time Temperature Precipitation Wind Pressure Humidity
    00:00 +3°C° 0 mm 1 mps 583 mmHg 88%
    01:00 +2°C° 0 mm 1 mps 583 mmHg 88%
    02:00 +2°C° 0 mm 1 mps 583 mmHg 87%
    03:00 +2°C° 0 mm 1 mps 583 mmHg 87%
    04:00 +2°C° 0 mm 1 mps 583 mmHg 86%
    05:00 +2°C° 0 mm 1 mps 583 mmHg 86%
    06:00 +2°C° 0 mm 1 mps 583 mmHg 85%
    07:00 +2°C° 0 mm 1 mps 583 mmHg 85%
    08:00 +5°C° 0 mm 1 mps 585 mmHg 74%
    09:00 +7°C° 0 mm 1 mps 586 mmHg 64%
    10:00 +9°C° 0 mm 0 mps 588 mmHg 53%
    11:00 +11°C° 0 mm 1 mps 588 mmHg 49%
    12:00 +11°C° 0 mm 1 mps 588 mmHg 45%
    13:00 +12°C° 0 mm 1 mps 589 mmHg 40%
    14:00 +12°C° 0 mm 1 mps 588 mmHg 44%
    15:00 +11°C° 0 mm 1 mps 588 mmHg 48%
    16:00 +10°C° 0 mm 1 mps 588 mmHg 52%
    17:00 +8°C° 0 mm 1 mps 587 mmHg 62%
    18:00 +6°C° 0 mm 1 mps 586 mmHg 73%
    19:00 +2°C° 0 mm 0 mps 585 mmHg 83%
    20:00 +2°C° 0 mm 0 mps 585 mmHg 84%
    21:00 +2°C° 0 mm 0 mps 585 mmHg 85%
    22:00 +1°C° 0 mm 0 mps 585 mmHg 85%
    23:00 +1°C° 0 mm 0 mps 586 mmHg 85%

    Day after tomorrow, 20 October, Saturday

    Time Temperature Precipitation Wind Pressure Humidity
    00:00 +1°C° 0 mm 0 mps 586 mmHg 85%
    01:00 +2°C° 0 mm 1 mps 586 mmHg 85%
    02:00 +2°C° 0 mm 1 mps 586 mmHg 85%
    03:00 +2°C° 0 mm 1 mps 586 mmHg 84%
    04:00 +2°C° 0 mm 1 mps 586 mmHg 83%
    05:00 +2°C° 0 mm 1 mps 586 mmHg 81%
    06:00 +1°C° 0 mm 1 mps 586 mmHg 79%
    07:00 +1°C° 0 mm 1 mps 586 mmHg 78%
    08:00 +4°C° 0 mm 1 mps 588 mmHg 65%
    09:00 +7°C° 0 mm 1 mps 589 mmHg 53%
    10:00 +9°C° 0 mm 1 mps 590 mmHg 41%
    11:00 +10°C° 0 mm 1 mps 591 mmHg 38%
    12:00 +11°C° 0 mm 1 mps 591 mmHg 35%
    13:00 +12°C° 0 mm 1 mps 592 mmHg 32%
    14:00 +11°C° 0 mm 1 mps 591 mmHg 36%
    15:00 +9°C° 0 mm 2 mps 591 mmHg 41%
    16:00 +8°C° 0 mm 2 mps 590 mmHg 45%
    17:00 +7°C° 0 mm 1 mps 589 mmHg 56%
    18:00 +5°C° 0 mm 1 mps 588 mmHg 67%
    19:00 +2°C° 0 mm 1 mps 587 mmHg 77%
    20:00 +2°C° 0 mm 1 mps 588 mmHg 78%
    21:00 +2°C° 0 mm 1 mps 588 mmHg 80%
    22:00 +1°C° 0 mm 1 mps 588 mmHg 81%
    23:00 +1°C° 0 mm 1 mps 588 mmHg 79%

    21 October, Sunday

    Time Temperature Precipitation Wind Pressure Humidity
    00:00 +1°C° 0 mm 1 mps 587 mmHg 77%
    01:00 0°C° 0 mm 1 mps 587 mmHg 74%
    02:00 0°C° 0 mm 1 mps 587 mmHg 71%
    03:00 0°C° 0 mm 1 mps 587 mmHg 67%
    04:00 0°C° 0 mm 1 mps 587 mmHg 64%
    05:00 0°C° 0 mm 1 mps 587 mmHg 61%
    06:00 0°C° 0 mm 1 mps 587 mmHg 57%
    07:00 0°C° 0 mm 1 mps 587 mmHg 54%
    08:00 +3°C° 0 mm 1 mps 588 mmHg 45%
    09:00 +6°C° 0 mm 1 mps 590 mmHg 36%
    10:00 +8°C° 0 mm 0 mps 591 mmHg 27%
    11:00 +10°C° 0 mm 1 mps 592 mmHg 26%
    12:00 +11°C° 0 mm 1 mps 592 mmHg 24%
    13:00 +12°C° 0 mm 1 mps 592 mmHg 23%
    14:00 +11°C° 0 mm 1 mps 592 mmHg 29%
    15:00 +11°C° 0 mm 1 mps 591 mmHg 35%
    16:00 +10°C° 0 mm 1 mps 590 mmHg 41%
    17:00 +7°C° 0 mm 1 mps 589 mmHg 48%
    18:00 +5°C° 0 mm 1 mps 588 mmHg 55%
    19:00 +2°C° 0 mm 1 mps 587 mmHg 61%
    20:00 +2°C° 0 mm 1 mps 587 mmHg 58%
    21:00 +2°C° 0 mm 1 mps 587 mmHg 56%
    22:00 +2°C° 0 mm 1 mps 587 mmHg 53%
    23:00 +2°C° 0 mm 1 mps 587 mmHg 51%

    22 October, Monday

    Time Temperature Precipitation Wind Pressure Humidity
    00:00 +2°C° 0 mm 1 mps 587 mmHg 49%
    01:00 +2°C° 0 mm 1 mps 587 mmHg 46%
    02:00 +2°C° 0 mm 1 mps 586 mmHg 45%
    03:00 +2°C° 0 mm 1 mps 586 mmHg 44%
    04:00 +2°C° 0 mm 1 mps 586 mmHg 42%
    05:00 +2°C° 0 mm 1 mps 586 mmHg 42%
    06:00 +1°C° 0 mm 2 mps 586 mmHg 42%
    07:00 +1°C° 0 mm 2 mps 586 mmHg 42%
    08:00 +4°C° 0 mm 2 mps 587 mmHg 39%
    09:00 +6°C° 0 mm 2 mps 589 mmHg 35%
    10:00 +9°C° 0 mm 2 mps 590 mmHg 31%
    11:00 +10°C° 0 mm 2 mps 590 mmHg 31%
    12:00 +12°C° 0 mm 2 mps 590 mmHg 31%
    13:00 +13°C° 0 mm 2 mps 590 mmHg 31%
    14:00 +12°C° 0 mm 2 mps 590 mmHg 36%
    15:00 +10°C° 0 mm 2 mps 589 mmHg 41%
    16:00 +9°C° 0 mm 2 mps 589 mmHg 47%
    17:00 +7°C° 0 mm 2 mps 588 mmHg 56%
    18:00 +4°C° 0 mm 2 mps 587 mmHg 65%
    19:00 +2°C° 0 mm 2 mps 586 mmHg 75%
    20:00 +1°C° 0 mm 2 mps 586 mmHg 77%
    21:00 +1°C° 0 mm 2 mps 586 mmHg 79%
    22:00 +1°C° 0 mm 1 mps 586 mmHg 82%
    23:00 +1°C° 0 mm 1 mps 585 mmHg 81%

    23 October, Tuesday

    Time Temperature Precipitation Wind Pressure Humidity
    00:00 +1°C° 0 mm 1 mps 585 mmHg 81%
    01:00 0°C° 0 mm 1 mps 584 mmHg 81%
    02:00 0°C° 0 mm 1 mps 584 mmHg 79%
    03:00 0°C° 0 mm 1 mps 584 mmHg 78%
    04:00 -1°C° 0 mm 1 mps 583 mmHg 77%
    05:00 -1°C° 0 mm 1 mps 583 mmHg 76%
    06:00 -1°C° 0 mm 1 mps 583 mmHg 76%
    07:00 -1°C° 0 mm 1 mps 582 mmHg 75%
    08:00 +1°C° 0 mm 1 mps 583 mmHg 65%
    09:00 +4°C° 0 mm 1 mps 584 mmHg 55%
    10:00 +6°C° 0 mm 1 mps 585 mmHg 45%
    11:00 +5°C° 0 mm 2 mps 584 mmHg 47%
    12:00 +6°C° 0 mm 2 mps 584 mmHg 49%
    13:00 +6°C° 0 mm 2 mps 584 mmHg 51%
    14:00 +5°C° 0.4 mm 2 mps 583 mmHg 57%
    15:00 +4°C° 0.4 mm 2 mps 582 mmHg 64%
    16:00 +2°C° 0.4 mm 2 mps 581 mmHg 70%
    17:00 0°C° 0.5 mm 3 mps 581 mmHg 74%
    18:00 -1°C° 0.5 mm 3 mps 580 mmHg 79%
    19:00 -2°C° 0.5 mm 3 mps 580 mmHg 83%
    20:00 -4°C° 0.1 mm 3 mps 579 mmHg 83%
    21:00 -5°C° 0.1 mm 3 mps 579 mmHg 84%
    22:00 -6°C° 0.1 mm 3 mps 579 mmHg 85%
    23:00 -5°C° 0.1 mm 2 mps 578 mmHg 85%
    Show more